Starlink 11402

operational
NORAD ID: 61874 Int'l Des: 2024-204 Owner: SPXS Country: US Constellation: starlink
LEOCIRCULAR

Über Starlink 11402

Beschreibung wird geladen...

Live-Position

3D-Globus wird geladen...

Nächste Überflüge

Höhenverlauf

Altitude vs Time

uPlot chart will show altitude changes over time

Zweizeiliger Elementsatz

1 61874U 24204A 25258.11292867 -.00003155 00000-0 -21188-4 0 9996
2 61874 53.1597 142.1599 0001081 95.7157 264.3984 15.69719525 49923
Epoch: 15. Sept. 2025 • Age: 12 hours

Aktueller Status

Höhe 377.9 km
Geschwindigkeit 7.68 km/s
Subsatellitenpunkt -50.63°S, 139.61°W
Startdatum 9. Nov. 2024
Alter 0.8 years
Typ internet

Technische Details

Klassifizierung Payload
Masse 960.00 kg
Trockenmasse 910.00 kg
Gesamtmasse 960.00 kg
Länge 0.30 m
Durchmesser 4.10 m
Spannweite 29.00 m
Form Box + pan
Hersteller SPXS
Bus-Typ Starlink V2MD
Phasenstatus In Orbit
Besitzer/Staat SPXS/US

Große Konstellationen

Loading constellations...